[Iaude] MPEC O108: 2024 OC1 [a=1.80,e=0.36,i=22.5,H=21.9]
    mpec at cfa.harvard.edu 
    mpec at cfa.harvard.edu
       
    Tue Jul 30 20:58:22 EDT 2024
    
    
  
M.P.E.C. 2024-O108                                Issued 2024 July 31, 00:57 UT
     The Minor Planet Electronic Circulars contain information on unusual
         minor planets, routine data on comets and natural satellites,
         and occasional editorial announcements.  They are published
    on behalf of Division F of the International Astronomical Union by the
          Minor Planet Center, Smithsonian Astrophysical Observatory,
                          Cambridge, MA 02138, U.S.A.
			  
             Prepared using the Tamkin Foundation Computer Network
                              MPC at CFA.HARVARD.EDU
            URL https://www.minorplanetcenter.net/    ISSN 1523-6714
                                    2024 OC1                                    
Observations:
     K24O01C  C2024 07 26.54285121 47 46.362+15 47 41.78         20.96GVEO108F51
     K24O01C  C2024 07 26.56741521 47 42.097+15 49 52.46         21.03GVEO108F51
     K24O01C* C2024 07 29.39075921 40 21.521+19 45 32.17         20.86wXEO108F52
     K24O01C  C2024 07 29.40321321 40 19.407+19 46 30.96         20.41wXEO108F52
     K24O01C  C2024 07 29.41567121 40 17.292+19 47 29.70         19.87GVEO108F52
     K24O01C  C2024 07 29.53969121 39 55.964+19 57 08.95         21.40GVEO108F52
     K24O01C  C2024 07 29.54034521 39 55.857+19 57 11.70         21.73GVEO108F52
     K24O01C KC2024 07 29.82247 21 39 14.21 +20 18 37.4                ZEO108M45
     K24O01C KC2024 07 29.83268 21 39 12.52 +20 19 24.2          20.0 VZEO108M45
     K24O01C IC2024 07 29.94123221 38 54.89 +20 27 44.7          20.4 VSEO108L01
     K24O01C IC2024 07 29.94291921 38 54.62 +20 27 52.3          19.7 VSEO108L01
     K24O01C KC2024 07 29.94460821 38 54.46 +20 27 59.5          20.5 VSEO108L01
     K24O01C IC2024 07 29.94629621 38 54.18 +20 28 07.3          19.7 VSEO108L01
     K24O01C KC2024 07 30.26257121 38 04.46 +20 52 03.2          20.5 GVEO108H21
     K24O01C KC2024 07 30.26929021 38 03.30 +20 52 33.3          20.6 GVEO108H21
     K24O01C KC2024 07 30.27208721 38 02.83 +20 52 45.8          20.5 GVEO108H21
     K24O01C KB2024 07 30.91203 21 36 24.197+21 39 43.31         18.4 GXEO108L38
     K24O01C KB2024 07 30.91734 21 36 23.364+21 40 06.42         20.1 GXEO108L38
     K24O01C KB2024 07 30.92782 21 36 21.648+21 40 51.53         18.1 GXEO108L38
Observer details:
F51 Pan-STARRS 1, Haleakala.  Observers J. Herman, T. Lowe, P. Minguez, A.
    Schultz, I. Smith.  Measurers K. Chambers, T. de Boer, J. Fairlamb, H.
    Gao, M. Huber, C.-C. Lin, E. Magnier, Y. Ramanjooloo, R. Wainscoat, R.
    Weryk.  1.8-m Ritchey-Chretien + CCD.
F52 Pan-STARRS 2, Haleakala.  Observers J. Herman, T. Lowe, P. Minguez, A.
    Schultz, I. Smith.  Measurers K. Chambers, T. de Boer, J. Fairlamb, H.
    Gao, M. Huber, C.-C. Lin, E. Magnier, Y. Ramanjooloo, R. Wainscoat, R.
    Weryk.  1.8-m Ritchey-Chretien + CCD.
H21 Astronomical Research Observatory, Westfield.  Observer R. Holmes.
    Measurers T. Linder, R. Holmes.  0.76-m f/3.0 astrograph + CCD.
L01 Visnjan Observatory, Tican.  Observers K. Korlevic, L. Poropat.  Measurer
    K. Korlevic.  1.0-m f/2.9 reflector + CCD.
L38 Gartensternwarte Schafsweide, Sehlde.  Observer A. Opitz.  0.35-m f/5.2
    Newton + CMO.
M45 Starhopper Observatory, Sfantu Gheorghe.  Observer F. Ursache.  0.41-m
    f/7.5 reflector + CMO.
Orbital elements:
2024 OC1                                                 Earth MOID = 0.1510 AU
Epoch 2024 Oct. 17.0 TT = JDT 2460600.5                 Veres                   
M  44.75221              (2000.0)            P               Q                  
n   0.40681151     Peri.  347.85687     +0.26783833     +0.90075509             
a   1.8038783      Node   296.82863     -0.84880233     +0.05270065             
e   0.3563494      Incl.   22.52913     -0.45584782     +0.43111822             
P   2.42           H   21.91          G   0.15           U   9                  
Residuals in seconds of arc
240726 F51  0.2+  0.2-    240729 M45  0.3-  0.5+    240730 H21  0.2-  0.0
240726 F51  0.2-  0.2+    240729 M45  0.6-  0.0     240730 H21  0.2-  0.1-
240729 F52  0.1+  0.0     240729 L01  0.7-  0.7+    240730 L38  0.3-  0.2+
240729 F52  0.2+  0.1-    240729 L01  0.5-  0.5+    240730 L38  0.2+  0.0
240729 F52  0.3+  0.1-    240729 L01  1.2+  0.0     240730 L38  0.2+  0.7-
240729 F52  0.3+  0.2-    240729 L01  1.2+  0.0
240729 F52  0.4+  0.5-    240730 H21  0.2+  0.1+
Ephemeris:
2024 OC1                 a,e,i = 1.80, 0.36, 23                  q = 1.1611
Date    TT    R. A. (2000) Decl.     Delta      r    Elong.  Phase     V
2024 07 01    22 43 05.2 -30 55 25   0.2218  1.1612   126.1    45.1    20.7
...
2024 07 16    22 14 30.1 -02 45 03   0.1982  1.1722   138.5    35.1    20.2
...
2024 07 24    21 54 25.9 +11 49 58   0.2112  1.1850   139.8    33.6    20.3
...
2024 07 30    21 38 45.1 +20 32 25   0.2313  1.1975   138.2    34.4    20.5
2024 07 31    21 36 09.7 +21 46 21   0.2353  1.1998   137.8    34.7    20.6
2024 08 01    21 33 35.4 +22 56 34   0.2395  1.2022   137.4    34.9    20.6
...
2024 08 07    21 18 49.2 +28 43 29   0.2679  1.2178   134.8    36.2    21.0
...
2024 08 15    21 01 57.3 +33 37 27   0.3121  1.2418   131.5    37.6    21.4
...
2024 08 30    20 42 20.9 +37 08 06   0.4064  1.2954   126.9    38.5    22.1
M. P. C. Staff               (C) Copyright 2024 MPC           M.P.E.C. 2024-O108
    
    
More information about the Iaude
mailing list